Location: Kershaw
(34.5481°N, 80.5823°W)
Time: 22:31:11
(UTC+00:00)

Vanguard 2 Rocket - Pass Details

Date: 04 October 2022
Orbit: 555 x 3321 km, 32.9° (Epoch: 28 November)

Event Time Altitude Azimuth Distance (km) Brightness Sun altitude
Rises 02:41:07 0° 233° (SW) 7,227 11.7 -43.9°
Reaches altitude 10° 02:46:26 10° 229° (SW) 6,037 11.1 -44.9°
Enters shadow 02:57:06 38° 211° (SSW) 3,631 9.7 -46.7°
